Lapse_Rate
6.5 6.4 6.4 6.5 6.5 6.5 6.1 6.2 6.2 6.1 6.5 6.9 7.2 7.8 9.0 9.6 9.6 9.6 7.8 6.5 6.5 6.2 6.6 6.8 6.3 6.9 6.5 6.5 6.5 6.3 6.6 6.5 6.4
6.4 6.4 6.8 6.8 6.5 6.4 6.0 6.0 6.4 6.3 6.4 6.9 7.3 8.6 9.2 9.6 9.4 9.0 7.6 6.8 6.7 7.1 7.1 6.7 6.9 6.7 6.2 6.6 6.2 6.5 5.9 6.0 6.4
6.6 6.7 6.4 6.4 6.4 6.3 6.1 6.1 6.4 6.2 6.2 6.4 7.2 8.7 9.5 9.5 9.2 9.2 7.6 7.1 7.3 7.0 6.9 6.8 6.6 6.4 6.3 6.2 6.5 6.6 6.2 6.1 6.0
6.3 6.5 6.6 6.8 6.6 6.1 6.1 6.3 6.6 5.9 6.4 6.7 7.7 8.7 9.3 9.6 9.3 9.2 7.8 8.4 8.5 8.0 6.9 6.9 6.8 6.1 6.3 6.4 6.5 6.4 6.2 6.1 5.8
6.6 6.7 6.4 6.4 6.7 6.3 6.2 6.4 6.2 6.2 6.3 6.9 7.6 8.8 9.5 9.2 8.9 8.6 8.0 8.3 9.0 8.6 7.2 7.0 6.7 6.2 6.2 6.0 6.4 6.3 6.4 6.5 6.1
8.0 6.7 6.6 6.6 6.6 6.5 6.2 5.9 5.5 5.6 6.0 6.9 7.7 9.1 9.5 8.5 8.6 8.1 8.3 8.3 8.6 8.9 7.9 6.8 6.7 6.5 6.2 5.9 6.1 6.5 6.5 6.4 6.2
7.6 7.2 6.9 6.9 6.9 6.7 6.8 6.9 7.0 8.7 8.8 8.4 8.5 9.7 9.7 9.6 9.6 9.1 8.3 8.2 8.3 8.7 8.0 7.5 7.0 6.7 6.3 6.1 5.9 6.6 6.5 6.4 6.4
8.7 7.8 7.4 7.1 7.8 8.3 8.6 8.1 9.6 9.7 9.7 9.7 9.7 9.7 9.4 7.8 7.6 7.5 7.8 8.8 8.7 9.2 8.5 8.0 7.5 7.3 6.7 6.4 6.1 6.0 6.7 6.6 6.6
9.6 9.8 8.7 9.6 9.7 9.7 9.6 9.7 9.7 9.7 9.7 9.7 9.7 9.7 9.7 8.5 9.0 7.7 8.2 8.7 7.6 8.3 8.9 9.0 8.1 7.9 7.0 6.8 6.4 6.8 6.1 6.6 7.0
9.8 9.7 9.7 9.7 9.7 9.7 9.7 9.7 9.7 9.7 9.7 9.7 9.7 9.6 9.5 8.4 9.2 8.0 8.0 7.6 8.5 8.1 8.3 8.7 8.5 8.4 8.2 7.2 6.6 6.7 6.7 6.2 6.7
9.7 9.8 9.7 9.7 9.7 9.7 9.7 9.7 9.7 9.7 9.7 9.7 9.7 9.7 9.7 8.5 9.3 8.1 6.9 7.2 8.1 8.7 9.2 8.6 9.1 8.7 8.6 8.5 7.8 7.2 6.9 6.9 6.2
9.7 9.7 9.7 9.7 9.7 9.7 9.7 9.7 9.7 9.7 9.7 9.7 9.7 9.7 9.7 9.6 9.6 8.8 9.1 7.9 7.8 7.7 8.1 9.2 8.6 8.3 8.4 9.1 8.3 7.6 7.4 7.5 7.0
9.6 9.6 9.7 9.6 9.6 9.6 9.7 9.7 9.7 9.6 9.7 9.7 9.7 9.7 9.7 9.7 9.7 9.6 9.3 9.2 8.4 7.2 6.8 7.5 8.0 8.1 8.1 8.5 6.4 6.7 8.3 7.8 7.7
9.6 9.6 9.5 9.6 9.5 9.7 9.6 9.6 9.6 9.4 9.4 9.4 9.6 9.7 9.7 9.7 9.7 9.7 9.6 8.8 9.6 8.8 7.1 6.9 6.8 7.3 7.4 7.4 8.6 5.8 4.8 5.6 6.8
9.2 9.4 8.9 9.2 9.5 9.7 9.5 9.5 9.6 9.4 9.4 9.5 9.5 9.6 9.5 9.7 9.7 9.7 9.7 9.1 9.0 9.2 9.0 7.5 6.3 6.3 6.5 7.0 7.1 6.5 4.9 5.2 5.4
7.6 8.6 8.3 8.0 8.4 9.3 9.7 9.5 9.3 9.1 9.4 8.9 8.8 8.7 8.8 8.9 9.2 9.6 9.7 9.0 9.1 8.8 8.7 8.5 9.2 6.2 5.8 5.8 6.0 6.4 5.6 5.1 5.7
7.2 7.2 7.0 7.4 7.8 8.7 9.4 8.9 8.7 9.0 9.1 8.7 8.5 7.9 8.2 8.9 8.4 8.5 9.1 9.4 8.5 8.2 7.9 7.9 7.8 7.9 8.3 6.3 5.4 5.6 6.3 6.5 6.8
6.6 6.3 6.3 6.9 7.4 7.8 8.9 8.1 7.7 7.6 8.6 9.1 7.9 7.7 7.4 8.3 7.6 7.6 8.3 8.2 7.9 8.0 7.7 7.3 7.3 7.5 7.5 6.0 5.3 5.4 5.4 5.8 6.9
5.0 5.3 5.0 5.0 4.8 5.8 5.1 5.4 6.4 7.6 6.5 5.3 5.7 6.7 8.1 7.9 7.5 7.7 7.8 8.1 8.1 7.3 7.0 7.3 7.0 6.7 6.8 6.7 6.1 5.5 5.5 5.6 6.2
4.5 4.2 5.5 5.4 5.2 5.4 4.9 6.0 6.4 8.3 7.2 6.8 6.5 6.3 6.6 7.6 7.9 7.4 7.1 7.4 7.7 7.8 7.2 7.2 7.1 7.1 6.7 6.5 6.2 5.4 5.1 5.3 6.2
Wind_Speed
23 23 21 21 19 18 17 17 22 23 22 21 16 12 13 19 20 18 21 18 15 18 19 25 21 20 21 21 20 22 26 29 29
22 20 20 19 20 18 17 20 24 23 21 19 16 20 18 22 21 17 17 20 24 25 26 25 25 23 22 19 20 25 27 26 26
19 18 19 20 21 20 20 24 25 23 20 17 17 15 16 23 20 16 16 19 23 26 25 25 23 23 22 20 24 26 25 25 25
17 16 17 20 22 22 23 26 24 22 20 18 19 16 21 21 18 18 15 19 20 23 24 23 23 23 22 21 24 25 24 25 24
19 21 23 23 24 25 23 23 22 21 17 15 11 11 16 22 16 15 17 20 18 18 21 22 21 23 24 22 23 24 23 24 23
18 24 26 25 24 23 22 21 20 20 15 8 3 8 16 19 16 15 18 18 18 15 18 21 22 22 24 21 20 23 22 22 22
20 23 26 25 22 22 20 19 20 14 10 6 2 12 14 17 16 14 17 16 16 15 14 21 21 22 23 23 20 20 21 21 22
19 17 16 17 18 14 12 9 10 11 10 9 11 11 17 19 14 14 15 15 16 18 15 18 20 20 20 22 22 18 19 20 21
18 15 16 13 11 14 10 10 12 12 12 11 12 13 12 19 14 12 13 14 17 16 16 12 16 18 19 20 20 22 16 17 20
14 14 13 11 11 11 10 11 11 12 13 12 12 14 16 17 11 13 15 15 15 17 17 16 14 13 17 18 20 20 21 17 19
12 11 11 14 12 12 11 10 10 10 12 11 12 12 12 17 10 16 11 13 16 15 15 13 14 12 11 13 17 18 18 19 16
12 11 10 12 14 14 12 12 10 10 11 11 10 11 11 11 12 13 10 15 17 16 13 12 12 14 13 12 9 13 15 16 16
12 10 10 11 12 11 10 8 6 6 6 6 7 9 9 11 8 8 8 8 12 14 13 13 13 13 11 12 11 8 12 12 13
13 11 12 13 11 10 9 6 6 5 5 5 5 7 8 8 9 9 9 6 5 10 9 9 9 10 9 8 8 9 9 8 10
13 11 15 13 9 7 6 7 6 6 5 6 5 4 6 6 6 7 7 7 6 5 5 9 9 7 8 8 8 8 8 8 7
12 11 13 12 7 8 9 7 7 5 6 4 4 3 3 2 2 2 5 6 4 5 4 3 4 9 6 5 5 4 6 6 7
13 12 11 11 7 9 9 7 5 4 6 5 4 4 3 3 3 3 1 2 4 4 2 3 2 1 5 7 3 2 2 2 3
14 13 11 10 10 7 8 7 6 5 4 2 1 2 2 4 3 4 3 3 3 3 5 3 2 2 3 5 6 4 2 2 1
14 15 13 13 7 7 5 8 6 6 6 1 1 3 3 1 3 3 3 3 3 5 4 5 6 6 5 4 2 7 4 3 2
13 13 12 11 9 8 7 8 8 6 6 5 3 1 2 2 2 1 3 2 3 4 6 6 5 7 7 6 7 9 8 6 5
Wind_Direction
106 104 102 99 97 97 96 107 107 98 94 89 77 61 88 87 85 77 62 48 91 64 67 60 67 71 70 67 65 68 67 61 59
105 107 107 105 105 101 100 102 104 98 94 87 69 63 59 74 68 59 56 52 66 66 61 58 57 60 61 64 70 73 67 60 58
114 111 113 110 108 104 100 105 100 99 94 81 67 61 83 77 74 66 53 53 61 61 58 56 57 57 56 68 77 72 68 65 58
113 120 119 118 109 100 101 100 99 97 93 86 81 68 80 78 71 65 53 54 60 57 57 53 58 57 60 71 77 73 70 66 62
111 117 115 110 109 100 95 95 97 97 93 90 87 91 80 82 80 69 65 64 64 59 58 53 59 57 60 67 77 75 70 66 61
118 119 112 110 106 105 105 104 104 100 94 87 69 63 87 85 74 68 70 66 69 68 59 55 57 59 58 60 77 79 72 69 65
109 111 107 107 112 114 116 124 131 119 119 115 147 85 83 85 87 83 77 74 72 69 60 55 57 59 57 56 67 76 74 70 68
123 120 116 118 119 118 124 152 102 90 88 84 81 86 89 84 74 72 83 84 79 78 67 52 54 59 58 55 56 71 77 73 71
148 149 152 148 141 139 145 111 108 97 87 94 99 94 94 99 94 67 79 73 80 82 77 69 57 57 58 54 50 56 62 74 76
159 155 153 146 144 141 119 120 110 95 85 83 88 83 82 95 91 77 70 78 74 71 68 71 66 55 56 58 54 51 55 72 78
147 156 161 138 154 143 141 133 112 107 91 88 89 99 94 117 123 104 73 76 72 75 71 67 66 64 58 49 56 50 52 58 64
156 146 159 152 145 146 130 125 126 112 106 94 101 103 106 89 87 115 104 91 81 69 62 75 78 75 72 66 55 53 52 53 53
160 142 156 156 146 134 138 136 121 120 117 110 102 98 98 107 103 115 109 107 116 79 72 76 75 69 68 63 65 50 41 47 46
159 158 147 156 149 157 149 134 132 132 126 121 102 112 115 121 104 104 104 110 83 112 95 95 73 72 66 59 73 71 51 39 31
159 160 152 159 161 161 156 155 155 146 141 127 115 103 80 112 121 111 108 105 123 105 110 157 106 83 78 60 79 69 61 50 37
164 161 161 163 170 164 167 156 162 146 147 138 127 128 131 129 113 110 113 125 122 103 106 78 132 134 125 92 71 72 78 58 58
168 167 166 169 172 172 172 152 157 154 165 168 173 157 164 196 184 176 176 159 133 148 152 105 86 85 139 133 110 81 90 56 63
169 169 168 177 170 171 174 153 142 155 192 276 301 147 109 151 148 197 208 200 181 211 181 200 198 208 144 158 181 182 198 271 341
170 169 172 167 162 174 164 158 179 181 178 35 267 306 1 237 156 168 204 221 205 196 228 230 206 216 228 200 152 179 206 245 270
170 159 167 175 181 173 171 193 189 180 185 197 159 204 268 345 320 134 156 201 210 203 212 206 239 217 219 223 210 206 213 230 246